"Pseudo-MPEC" for CAVA8G2

Created 2024 Oct 2 4:22:04 UT using Find_Orb

Click here for an explanation of pseudo-MPECs

 
 Astrometry: 
     CAVA8G2*1C2024 09 24.19012822 50 33.364+10 22 21.36   ~9P1M 21.79GVNEOCPG96
     CAVA8G2 1C2024 09 24.19527722 50 33.209+10 22 03.65   ~9P1M 21.70GVNEOCPG96
     CAVA8G2 1C2024 09 24.20043922 50 33.083+10 21 46.44   ~9P1M 21.75GVNEOCPG96
     CAVA8G2 1C2024 09 24.20558322 50 32.903+10 21 28.30   ~9P1M 21.67GVNEOCPG96
     CAVA8G2  C2024 09 29.29069922 51 52.951+04 43 01.16   ~9T97 21.82wXNEOCPF52
     CAVA8G2  C2024 09 29.30193822 51 52.841+04 42 11.34   ~9T97 21.63wXNEOCPF52
     CAVA8G2  C2024 09 29.31323822 51 52.657+04 41 20.06   ~9T97 21.54wXNEOCPF52
     CAVA8G2 KC2024 09 30.23515 22 52 16.72 +03 30 36.5    ~9U6q 21.7 RVNEOCP691
     CAVA8G2 KC2024 09 30.24316 22 52 16.67 +03 29 59.5    ~9U6q 21.7 RVNEOCP691
     CAVA8G2 KC2024 09 30.25118 22 52 16.70 +03 29 21.8    ~9U6q 21.7 RVNEOCP691
     CAVA8G2 |C2024 10 02.02699022 53 23.950+01 07 57.20   ~A22M 21.0 GVNEOCP807
     CAVA8G2 |C2024 10 02.03269022 53 23.980+01 07 28.60   ~A22M 21.1 GVNEOCP807
     CAVA8G2 |C2024 10 02.03840022 53 24.010+01 07 00.00   ~A22M 20.9 GVNEOCP807
     CAVA8G2 KC2024 10 02.15334122 53 25.93 +00 55 11.8    ~A24M 21.1 GVNEOCPH21
     CAVA8G2 KC2024 10 02.16201322 53 25.99 +00 54 28.3    ~A24M 20.9 GVNEOCPH21

Station data:
(691) Steward Observatory, Kitt Peak - Spacewatch  (N31.962174 W111.600327)
   US/Arizona.  Observer J. V. Scotti. 0.9-m f/3 reflector + CCD.
(807) Cerro Tololo Observatory, La Serena  (S30.169133 W70.805900)  Chile.
   Observer R. Holmes. 0.61-m f/6.5 astrograph + CCD.
(F52) Pan-STARRS 2, Haleakala  (N20.707382 W156.255910)  US/Hawaii.
   Observers J. Bulger, T. Dukes, T. Lowe, A. Schultz, M. Willman. Measurers
   K. Chambers, S. Chastel, T. de Boer, L. Denneau, J. Fairlamb, H.
   Flewelling, M. Huber, C.-C. Lin, E. Magnier, Y. Ramanjooloo, R. Wainscoat,
   R. Weryk. 1.8-m Ritchey-Chrétien + CCD.
(G96) Mt. Lemmon Survey  (N32.442729 W110.788720)  US/Arizona.  Observer E.
   J. Christensen. 1.5-m reflector + 10K CCD.
(H21) Astronomical Research Observatory, Westfield  (N39.483054 W87.968270)
   US/Illinois.  Observer R. Holmes. Measurers S. Foglia, L. Buzzi, T.
   Linder, R. Holmes. 0.76-m f/3.0 astrograph + CCD0.81-m f/4.0 astrograph +
   CCD0.61-m f/4.5 astrograph + CCD0.40-m f/5.32 astrograph + CCD.

Orbital elements:  CAVA8G2
   Perihelion 2024 Nov 29.15736 +/- 0.018 TT =  3:46:36 (JD 2460643.65736)
Epoch 2024 Oct  2.0 TT = JDT 2460585.5   Earth MOID: 0.0468      AutoNEOCP
M 315.59585479 +/- 0.06             (J2000 ecliptic)
n   0.76351716 +/- 0.000805         Peri.  233.95027 +/- 0.015
a   1.18555992 +/- 0.000833         Node   192.05196 +/- 0.006
e   0.1555084 +/- 0.000546          Incl.    6.50779 +/- 0.022
P   1.291/471.493d         H 25.94  G  0.15   U  8.0
q 1.00119535 +/- 5.69e-5    Q 1.36992449 +/- 0.00161
From 15 observations 2024 Sept. 24-Oct. 2; mean residual 0".46
Residuals in arcseconds: 
240924 G96  .07+  .51-    240929 F52  .46+  .43+    241002 807  .08-  .11-    
240924 G96  .17-  .31-    240929 F52  .12+  .32-    241002 807  .06-  .19-    
240924 G96  .04+  .46+    240930 691  1.5-  .57-    241002 807  .03+  .21-    
240924 G96  .53-  .25+    240930 691  1.2-  .15-    241002 H21  .18-  .20+    
240929 F52  .11-  .06+    240930 691  .34+  .36-    241002 H21  .25+  .38+    

Ephemerides (geocentric):
Date (UTC) HH   RA             Dec           delta  r     elong  mag " sig PA
---- --------  ------------   ------------  ------ ------ -----  --- --------
2024 10 02 04  22 53 25.964   +00 55 16.12  .07590 1.0701 154.9 21.6 .022  25
2024 10 02 05  22 53 27.685   +00 51 46.10  .07584 1.0700 154.8 21.6 .023  36
2024 10 02 06  22 53 29.416   +00 48 15.76  .07578 1.0699 154.8 21.6 .026  45
2024 10 02 07  22 53 31.157   +00 44 45.09  .07572 1.0698 154.7 21.6 .028  53
2024 10 02 08  22 53 32.908   +00 41 14.09  .07566 1.0697 154.7 21.6 .031  59
2024 10 02 09  22 53 34.669   +00 37 42.77  .07560 1.0697 154.7 21.6 .035  64
2024 10 02 10  22 53 36.440   +00 34 11.13  .07553 1.0696 154.6 21.6 .039  68
2024 10 02 11  22 53 38.221   +00 30 39.16  .07547 1.0695 154.6 21.6 .043  71
2024 10 02 12  22 53 40.013   +00 27 06.86  .07541 1.0694 154.5 21.6 .047  74
2024 10 02 13  22 53 41.814   +00 23 34.25  .07535 1.0693 154.5 21.6 .052  77
2024 10 02 14  22 53 43.626   +00 20 01.31  .07529 1.0692 154.5 21.6 .056  78
2024 10 02 15  22 53 45.448   +00 16 28.04  .07523 1.0691 154.4 21.6 .061  80
2024 10 02 16  22 53 47.281   +00 12 54.45  .07517 1.0690 154.4 21.6 .066  81
2024 10 02 17  22 53 49.123   +00 09 20.54  .07512 1.0689 154.3 21.6 .070  83
2024 10 02 18  22 53 50.976   +00 05 46.31  .07506 1.0689 154.3 21.6 .075  84
2024 10 02 19  22 53 52.840   +00 02 11.76  .07500 1.0688 154.3 21.6 .080  84
2024 10 02 20  22 53 54.713   -00 01 23.12  .07494 1.0687 154.2 21.6 .085  85
2024 10 02 21  22 53 56.598   -00 04 58.32  .07488 1.0686 154.2 21.6 .091  86
2024 10 02 22  22 53 58.492   -00 08 33.83  .07482 1.0685 154.1 21.6 .096  86
2024 10 02 23  22 54 00.397   -00 12 09.67  .07476 1.0684 154.1 21.6 .101  87
2024 10 03 00  22 54 02.313   -00 15 45.83  .07470 1.0683 154.1 21.6 .107  87
2024 10 03 01  22 54 04.238   -00 19 22.31  .07464 1.0682 154.0 21.6 .112  88
2024 10 03 02  22 54 06.175   -00 22 59.11  .07459 1.0682 154.0 21.6 .118  88
2024 10 03 03  22 54 08.122   -00 26 36.22  .07453 1.0681 153.9 21.6 .123  88
2024 10 03 04  22 54 10.080   -00 30 13.66  .07447 1.0680 153.9 21.6 .129  89
2024 10 03 05  22 54 12.048   -00 33 51.41  .07441 1.0679 153.8 21.6 .135  89
2024 10 03 06  22 54 14.027   -00 37 29.48  .07435 1.0678 153.8 21.6 .141  89
2024 10 03 07  22 54 16.016   -00 41 07.87  .07430 1.0677 153.8 21.6 .146  89
2024 10 03 08  22 54 18.017   -00 44 46.58  .07424 1.0676 153.7 21.6 .152  89
2024 10 03 09  22 54 20.027   -00 48 25.60  .07418 1.0675 153.7 21.6 .158  89
2024 10 03 10  22 54 22.049   -00 52 04.94  .07412 1.0675 153.6 21.6 .164  89
2024 10 03 11  22 54 24.082   -00 55 44.59  .07407 1.0674 153.6 21.6 .171  89
2024 10 03 12  22 54 26.125   -00 59 24.56  .07401 1.0673 153.5 21.6 .177  90
2024 10 03 13  22 54 28.179   -01 03 04.85  .07395 1.0672 153.5 21.6 .183  90
2024 10 03 14  22 54 30.244   -01 06 45.44  .07390 1.0671 153.5 21.6 .189  90
2024 10 03 15  22 54 32.319   -01 10 26.36  .07384 1.0670 153.4 21.6 .196  90
2024 10 03 16  22 54 34.406   -01 14 07.59  .07378 1.0669 153.4 21.6 .202  90
2024 10 03 17  22 54 36.504   -01 17 49.13  .07373 1.0668 153.3 21.6 .209  90
2024 10 03 18  22 54 38.612   -01 21 30.98  .07367 1.0668 153.3 21.6 .215  90
2024 10 03 19  22 54 40.732   -01 25 13.15  .07362 1.0667 153.2 21.6 .222  90
2024 10 03 20  22 54 42.862   -01 28 55.62  .07356 1.0666 153.2 21.6 .229  90
2024 10 03 21  22 54 45.004   -01 32 38.41  .07350 1.0665 153.1 21.6 .235  89
2024 10 03 22  22 54 47.156   -01 36 21.51  .07345 1.0664 153.1 21.6 .242  89
2024 10 03 23  22 54 49.320   -01 40 04.92  .07339 1.0663 153.1 21.6 .249  89
2024 10 04 00  22 54 51.495   -01 43 48.65  .07334 1.0662 153.0 21.6 .256  89
2024 10 04 01  22 54 53.680   -01 47 32.68  .07328 1.0662 153.0 21.6 .263  89
2024 10 04 02  22 54 55.877   -01 51 17.02  .07323 1.0661 152.9 21.6 .270  89
2024 10 04 03  22 54 58.086   -01 55 01.67  .07317 1.0660 152.9 21.6 .278  89